Other Public Products
Issued by NWS Grand Forks, ND

Home | Current Version | Previous Version | Graphics & Text | Print | Product List | Glossary On
Versions: 1 2 3 4 5 6 7 8 9 10 11 12 13 14 15 16 17 18 19 20 21 22 23 24 25 26 27 28 29 30 31 32 33 34 35 36 37 38 39 40 41 42 43 44 45 46 47 48 49 50
000
FPUS83 KFGF 222331
OPUFGF
PRAIRIE TO PINES WEATHER ROUNDUP
NATIONAL WEATHER SERVICE EASTERN NORTH DAKOTA/GRAND FORKS ND
600 PM CDT TUE APR 22 2014

 **SATELLITE DATA USED TO AUGMENT SKY COVER AT AUTOMATED STATIONS**
 *****  WEATHER ACROSS EASTERN NORTH DAKOTA  *****

CITY           SKY/WX    TMP DP  RH WIND       PRES   REMARKS
GRAND FORKS    MOSUNNY   62  31  31 SE9       29.99F
GRAND FORKS AF SUNNY     62  33  33 E8        29.99F
GRAND CITY NWS   N/A     61 N/A N/A SE10        N/A
BUXTON           N/A     61  37  39 E6          N/A
DEVILS LAKE    SUNNY     61  28  29 SE16      29.93F
FARGO          SUNNY     62  32  32 SE12      29.99F
WAHPETON ARPT  PTCLDY    61  27  27 SE13      29.99F
$$

 *****  WEATHER ACROSS CENTRAL AND WESTERN NORTH DAKOTA  *****

CITY           SKY/WX    TMP DP  RH WIND       PRES   REMARKS
JAMESTOWN      MOSUNNY   64  33  31 SE18G28   29.92S
BISMARCK       MOSUNNY   68  31  25 SE24G31   29.82F
MINOT          PTSUNNY   66  31  27 E22G29    29.82F
MINOT AFB      MOSUNNY   67  34  29 SE22G30   29.82F
GARRISON         N/A     67  31  26 SE18G28   29.79F
WILLISTON      CLOUDY    71  30  21 SE22G35   29.69F
DICKINSON      MOSUNNY   69  31  24 SE24G37   29.70F
HETTINGER      CLOUDY    67  32  27 SE26G35   29.70F
$$

 *****  OTHER OBSERVATIONS NORTHEAST NORTH DAKOTA  *****

CITY           SKY/WX    TMP DP  RH WIND       PRES   REMARKS
WALHALLA         N/A     59  36  41 SE12      29.99S
LANGDON        FAIR      59  32  36 SE20      29.96F
CAVALIER       FAIR      59  34  38 SE9       29.99F
GRAFTON        FAIR      59  36  41 SE13      30.00S
CANDO          FAIR      63  28  27 SE17G24   29.93S
FORT TOTTEN      N/A     63  24  22 SE12      29.95S
ROLLA          FAIR      59  28  31 SE18      29.93S
RUGBY          FAIR      61  32  33 E18G25    29.88F
 ***** THE ABOVE OBSERVATIONS ARE NON NWS ARE NOT QUALITY
        CONTROLLED AND MAY MIS-REPORT RAIN FOR SNOW...
$$

 *****  OTHER OBSERVATIONS SOUTHEAST NORTH DAKOTA *****

CITY           SKY/WX    TMP DP  RH WIND       PRES   REMARKS
COOPERSTOWN    FAIR      59  30  33 SE20      29.95F
VALLEY CITY    FAIR      63  32  31 SE14G24   29.95F
OAKES          FAIR      63  36  36 E22       29.93S
GWINNER        CLEAR     61  34  36 SE16      29.96S
SHEYENNE NWR     N/A     65  32  29 SE12      29.95S
BUFFALO        NOT AVBL
WYNDMERE       NOT AVBL
 ***** THE ABOVE OBSERVATIONS ARE NON NWS ARE NOT QUALITY
       CONTROLLED AND MAY MIS-REPORT RAIN FOR SNOW...
$$

  *****  WEATHER ACROSS NORTHERN MINNESOTA  *****

CITY           SKY/WX    TMP DP  RH WIND       PRES   REMARKS
FLAG ISLAND    SUNNY     36  25  64 S5        30.07F
WARROAD        SUNNY     46  21  36 E10       30.07F
ROSEAU         SUNNY     54  28  37 E10       30.05S
HALLOCK        CLOUDY    61  32  33 SE9       30.00F
THF RVR FALLS  SUNNY     55  30  38 NE9       30.03F
HALSTAD          N/A     62  28  28 SE7         N/A
FOSSTON        SUNNY     59  27  29 CALM      30.03S
BAUDETTE       SUNNY     52  18  26 NE6       30.07F
WASKISH        SUNNY     54  25  32 NW3       30.05F
CROOKSTON      SUNNY     61  30  31 E9        30.01S
$$
  *****  WEATHER ACROSS CENTRAL AND WEST MINNESOTA  *****

CITY           SKY/WX    TMP DP  RH WIND       PRES   REMARKS
BEMIDJI        SUNNY     53  23  30 NE6       30.04S
PARK RAPIDS    SUNNY     58  25  28 VRB5      30.02S
WADENA         MOSUNNY   57  28  33 CALM      30.02S
DETROIT LAKES  SUNNY     59  28  31 SE5       30.02S
MOORHEAD       SUNNY     63  28  27 S9        30.00S
FERGUS FALLS   SUNNY     59  25  27 E6        29.98S
ELBOW LAKE     FAIR      59  32  35 SE8       30.01S
MORRIS MN      PTSUNNY   63  32  31 SE8       30.00F
STAPLES        MOSUNNY   57  27  30 E5        30.02F
WHEATON        MOSUNNY   64  37  36 E14G21    30.01S
$$
  *****  WEATHER ELSEWHERE ACROSS MINNESOTA  *****

CITY           SKY/WX    TMP DP  RH WIND       PRES   REMARKS
DULUTH         SUNNY     52  22  30 VRB5      30.05S
INTRNTL FALLS  SUNNY     50  20  30 E6        30.07S
ELY            SUNNY     48  18  29 W5        30.05F
CLOQUET        SUNNY     54  16  22 NE7       30.05S
BRAINERD       SUNNY     60  21  22 N9        30.05F
HIBBING        SUNNY     54  18  24 N7        30.05S
ALEXANDRIA     SUNNY     58  32  37 E7        30.03F
SAINT CLOUD    SUNNY     59  27  29 N5        30.04F
MINNEAPOLIS    MOSUNNY   57  26  30 N9        30.05S
$$

  *****  WEATHER ACROSS SOUTH DAKOTA  *****

CITY           SKY/WX    TMP DP  RH WIND       PRES   REMARKS
SIOUX FALLS    CLOUDY    64  31  28 SE13      29.96F
BROOKINGS      NOT AVBL
WATERTOWN      CLOUDY    62  32  32 SE14      29.96S
HURON          CLOUDY    64  28  25 SE16G28   29.90F
SISSETON         N/A     62  31  31 SE14      29.96F
ABERDEEN       PTSUNNY   65  31  28 SE17G25   29.91F
MITCHELL       PTSUNNY   68  30  24 SE21G33   29.92F
PIERRE         PTSUNNY   68  34  28 SE29G40   29.73F
MOBRIDGE       CLOUDY    65  30  27 SE29G38   29.77F
RAPID CITY     CLOUDY    73  44  35 S20       29.61F
$$

  *****  SOME WEATHER IN NEARBY STATES *****

CITY           SKY/WX    TMP DP  RH WIND       PRES   REMARKS
GLASGOW MT     MOSUNNY   76  33  21 SE26G37   29.51F
GREAT FALLS MT CLOUDY    55  47  74 NW14      29.44F
CHEYENNE WY    CLOUDY    65  32  29 W10       29.80S
SCOTTSBLUFF NE PTSUNNY   82  33  17 SW17G26   29.66F
OMAHA NE       PTSUNNY   68  32  26 SE12      30.00S
DES MOINES IA  MOSUNNY   66  30  26 E3        30.02F
DAVENPORT IA   MOSUNNY   62  26  25 N14       30.00S
CHICAGO IL     MOSUNNY   50  29  44 E12       29.99R
EAU CLAIRE WI  SUNNY     54  21  27 NE8       30.04S
LA CROSSE WI   SUNNY     59  23  25 N13G21    30.02S
$$

  *****  SOME NATIONAL WEATHER *****

CITY           SKY/WX    TMP DP  RH WIND       PRES   REMARKS
LA GUARDIA NY  CLOUDY    63  49  60 NW3       29.52F
RALEIGH NC     CLOUDY    74  51  44 W7        29.67F
ATLANTA GA     CLOUDY    66  61  82 W14       29.84F
NEW ORLEANS LA PTSUNNY   75  67  76 SW5       29.89S
OKLAHOMA CITY  MOSUNNY   80  34  19 SE5       29.96F
ALBUQUERQUE NM PTSUNNY   81  29  15 S18G32    29.91F
SALT LAKE CITY CLOUDY    76  27  16 S38G54    29.47F HAZE
LOS ANGELES CA MOSUNNY   64  51  62 W15G22    29.92F
BOISE ID       LGT RAIN  48  42  80 N13       29.73S
SEATTLE WA     PTSUNNY   51  39  63 SW16      29.90S
$$

*** WEATHER ACROSS MANITOBA...SASKATCHEWAN AND ONTARIO ***
                ***ONTARIO***

CITY           SKY/WX    TMP DP  RH WIND       PRES   REMARKS
GERALDTON      MOSUNNY   39  23  52 N7        30.03S
THUNDER BAY    MOSUNNY   48  27  43 NW7       30.07R
SIOUX LOOKOUT  SUNNY     48  21  34 N6        30.06R
TORONTO        CLOUDY    43  34  70 NW21G30   29.68R
BIG TROUT LK   SUNNY     41  21  45 VRB2      30.03S
PICKLE LAKE    MOSUNNY   46  19  34 N3        30.03S
DRYDEN         SUNNY     50  19  29 NW3       30.06S
KENORA         SUNNY     48  21  34 SW7       30.08S
$$
                *** MANITOBA***

CITY           SKY/WX    TMP DP  RH WIND       PRES   REMARKS
BRANDON        MOSUNNY   61  34  36 SE12G17   29.94F
DAUPHIN        SUNNY     55  41  58 SE20      29.95F
ISLAND LAKE    CLOUDY    45  39  81 NW3       30.03R
PILOT MOUND      N/A     61  34  36 SE15G23     N/A
THE PAS        PTSUNNY   55  27  33 SE9         N/A
THOMPSON       MOSUNNY   48  34  57 CALM      29.99S
WINNIPEG       MOSUNNY   57  34  41 E8        30.03F
LYNN LAKE      MOSUNNY   45  30  57 E12       30.02R
CHURCHILL      CLOUDY    27  25  93 N13       30.13R WCI  16
GILLAM         PTSUNNY   46  28  49 W5        30.03R
$$
                ***SASKATCHEWAN***

CITY           SKY/WX    TMP DP  RH WIND       PRES   REMARKS
ESTEVAN        CLOUDY    64  36  34 E23G29    29.78
KINDERSLEY     PTSUNNY   72  27  18 SE26      29.54F
LLOYDMINSTER   PTSUNNY   63  32  31 E24G35    29.61F
PRINCE ALBERT  MOSUNNY   57  41  54 SE14G22   29.81S
REGINA         PTSUNNY   66  34  30 SE26G39   29.73F



USA.gov is the U.S. government's official web portal to all federal, state and local government web resources and services.